User: anonymous   Login
Location: Unspecified
(0.0000°N, 0.0000°E)
Time: 01:57:53
(UTC+00:00)
Language:

Courier 1B - Orbit

View from above orbital plane
View from above orbital plane
View from above satellite
View from above satellite

Ground track
Ground track

The orbit data is extracted from the following two-line orbital elements,

1    58U 60013A   19145.80626550  .00000092  00000-0  13950-4 0  9998
2    58  28.3271 266.3320 0164974  91.5974 270.3474 13.46317407886731
Epoch (UTC): 25 May 2019 19:21:01
Eccentricity: 0.0164974
inclination: 28.3271°
perigee height: 963 km
apogee height: 1209 km
right ascension of ascending node: 266.3320°
argument of perigee: 91.5974°
revolutions per day: 13.46317407
mean anomaly at epoch: 270.3474°
orbit number at epoch: 88673

The dashed part of the orbit path shows where the satellite is in the earth's shadow,  

DLR